{"data":{"norad_id":36097,"intl_designator":"2009-064A","name":"INTELSAT 14 (IS-14)","alt_names":[],"object_type":"PAYLOAD","status":"ACTIVE","operator":null,"country":"ITSO","launch_date":"2009-11-23","launch_site_code":"AFETR","launch_vehicle":null,"mission":null,"orbit_class":"UNKNOWN","rcs_meters":25.9029,"size_class":null,"mass_kg":null,"dimensions":null,"purposes":["comms"],"wikipedia_slug":null,"has_3d_model":false,"image_url":null,"decayed_at":null,"tle_current":{"epoch":"2026-09-19T23:35:58.182720Z","epoch_age_seconds":58921,"freshness":"FRESH","line1":"1 36097U 09064A   26262.98331230 -.00000278  00000+0  00000+0 0  9997","line2":"2 36097   0.1527  84.3483 0002432  91.4015 132.1398  1.00272077 61553","mean_motion":1.00272077,"eccentricity":0.0002432,"inclination_deg":0.1527,"raan_deg":84.3483,"arg_perigee_deg":91.4015,"mean_anomaly_deg":132.1398,"bstar":0,"rev_number":6155,"period_min":1436.0927220048,"perigee_km":35776.258660284,"apogee_km":35796.767546095,"semimajor_km":42164.650103189,"source":"CELESTRAK","updated_at":"2026-09-20T09:00:35.517929Z"}}}